SHIYAN 30 01

导读

SHIYAN 30 01(试验三十号卫星01星)是中国于北京时间2025年9月29日在西昌卫星发射中心,通过长征二号丁运载火箭发射的科学试验卫星,与试验三十号02星一同进入预定轨道。该卫星主要承担对地观测技术的试验验证任务,是中国长征系列运载火箭第598次飞行任务,发射任务获得圆满成功,将推动我国对地观测领域相关技术的发展验证。

Basic Information
目录编号:
65851
目录名称:
SHIYAN 30 01
国际标识:
2025-222A
轨道中心:
EARTH
卫星名称:
SHIYAN 30 01
卫星全名:
SHIYAN 30 01
卫星状态:
在轨 (已飞行350 天)
发射日期:
2025-09-29 UTC
国别 :
中国 (CN)
星等 :
--
This satellite is enrolled in the Space Conjunction Data Service (SCDS) and the current flight risk assessment level is: No High Risk
Orbit Information
数据来源 国际轨道数据 AOE轨道数据
星历时间 2026-09-14T02:21:02+0800
7小时前
查看轨道信息
2026-09-10T11:00:00+0800
3天前
查看轨道信息
半长轴 6969.974km 6970.026km
偏心率 0.0001737 0.0000936
轨道倾角 34.988° 34.988°
近地点辐角 193.362° 147.926°
升交点赤经 91.108° 112.923°
平近点角 166.704° 72.381°
近地点 590.626km 591.236km
远地点 593.048km 592.542km
周期 96.518分钟 96.519分钟
每日圈数 14.919562 14.919394
Detailed Information
使用方式:
暂无
2D Orbit Map
3D Orbit Map
Orbit Altitude Analysis Chart
Orbit Inclination Analysis Chart
Orbit Comprehensive Analysis Chart
View Comprehensive Chart
Conjunction Data List
Event ID Objects TCA Miss Dist (km) Collision Risk Probability Collision Risk Index (CRI) Action
CDM_260914-072204-008906-585126
2026-09-14T
07:22:09+0000
1.225 km
极远距离
9.375187E-6 低风险 0.54
Miss Distance Evolution Trend with All Objects
Collision Probability Evolution Trend with All Objects